This is the latest recevied weather packets stored in our database for station/object DK6MR. If no packets are shown the sender has not sent any weather packets the latest 10 day(s).
| Time | Temp. | Humidity | Pressure | Rain* | Wind** | Luminosity | Snow |
|---|---|---|---|---|---|---|---|
| 1777715747 | 22.78° C | 44% | 1017.6 hPa | 0 mm | - | - | - |
| 1777714847 | 23.33° C | 43% | 1017.6 hPa | 0 mm | - | - | - |
| 1777713945 | 22.22° C | 44% | 1017.9 hPa | 0 mm | - | - | - |
| 1777713044 | 22.22° C | 44% | 1017.9 hPa | 0 mm | - | - | - |
| 1777712143 | 21.11° C | 45% | 1017.9 hPa | 0 mm | - | - | - |
| 1777711242 | 20° C | 46% | 1018.3 hPa | 0 mm | - | - | - |
| 1777710341 | 19.44° C | 49% | 1017.9 hPa | 0 mm | - | - | - |
| 1777709440 | 18.89° C | 52% | 1017.9 hPa | 0 mm | - | - | - |
| 1777708539 | 18.33° C | 52% | 1017.9 hPa | 0 mm | - | - | - |
| 1777707639 | 16.67° C | 54% | 1018.3 hPa | 0 mm | - | - | - |
| 1777706737 | 16.11° C | 57% | 1018.6 hPa | 0 mm | - | - | - |
| 1777705837 | 16.11° C | 58% | 1018.6 hPa | 0 mm | - | - | - |
| 1777704936 | 15° C | 59% | 1018.6 hPa | 0 mm | - | - | - |
| 1777704035 | 15.56° C | 60% | 1018.6 hPa | 0 mm | - | - | - |
| 1777703133 | 14.44° C | 59% | 1018.6 hPa | 0 mm | - | - | - |
| 1777702233 | 13.89° C | 64% | 1018.6 hPa | 0 mm | - | - | - |
| 1777701332 | 12.78° C | 65% | 1018.9 hPa | 0 mm | - | - | - |
| 1777700431 | 12.22° C | 65% | 1018.6 hPa | 0 mm | - | - | - |
| 1777699530 | 11.67° C | 67% | 1018.6 hPa | 0 mm | - | - | - |
| 1777698629 | 10.56° C | 71% | 1018.6 hPa | 0 mm | - | - | - |
| 1777697729 | 10.56° C | 72% | 1018.6 hPa | 0 mm | - | - | - |
| 1777696827 | 10° C | 73% | 1018.6 hPa | 0 mm | - | - | - |
| 1777695926 | 10° C | 73% | 1018.6 hPa | 0 mm | - | - | - |
| 1777695026 | 10° C | 73% | 1018.6 hPa | 0 mm | - | - | - |
| 1777694125 | 10° C | 72% | 1018.6 hPa | 0 mm | - | - | - |
* Rain latest hour (hover to see other rain measurements)
** Current wind speed in m/s (hover to see current wind gust speed)